DateTimeUTC,F1_A11,F1_S11,BsB_S11,BsG_S11,BsR_S11,BbsB_S11,BbsG_S11,BbsR_S11,BaB_A11,BaG_A11,BaR_A11,Tu_S11,T_S11,Uu_S11,U_S11,P_S11,T1_A11
2021-08-25T11:00:00Z,00000200,20000000,,,,,,,0000.16,-000.03,0000.14,19.1,25.7,09.7,06.5,0676.3,31.0
2021-08-25T11:01:00Z,00000200,20000000,,,,,,,-000.09,0000.02,-000.02,19.1,25.7,09.7,06.5,0676.3,31.0
2021-08-25T11:02:00Z,00000200,20000000,,,,,,,0000.06,-000.14,0000.02,19.1,25.7,09.7,06.5,0676.3,31.0
2021-08-25T11:03:00Z,00000200,60000000,,,,,,,0000.69,0000.89,0000.64,19.1,25.8,09.8,06.5,0676.3,31.1
2021-08-25T11:04:00Z,00000200,40000000,0003.75,0002.60,0001.98,0000.22,0000.51,0000.31,0000.46,0000.33,0000.29,19.2,25.6,09.8,06.7,0677.2,31.0
2021-08-25T11:05:00Z,00000200,00000000,0003.54,0003.02,0002.14,0000.10,-000.00,0000.28,0000.73,0000.67,0000.50,19.3,25.6,09.8,06.7,0677.3,31.0
2021-08-25T11:06:00Z,00000200,00000000,0003.74,0002.88,0002.11,0000.70,0000.12,0000.36,0001.16,0000.86,0000.44,19.3,25.5,09.9,06.8,0677.4,31.0
2021-08-25T11:07:00Z,00000200,00000000,0003.95,0002.58,0001.90,0000.79,0000.39,0000.48,0000.03,0000.37,0000.47,19.3,25.5,09.9,06.8,0677.3,31.0
2021-08-25T11:08:00Z,00000200,00000000,0003.81,0002.66,0002.05,0000.08,0000.60,0000.28,0001.27,0001.12,0000.80,19.3,25.5,09.9,06.7,0677.3,31.0
2021-08-25T11:09:00Z,00000200,00000000,0003.50,0002.47,0001.86,0000.29,0000.51,0000.05,0000.44,0000.48,0000.45,19.3,25.5,10.0,06.8,0677.3,31.0
2021-08-25T11:10:00Z,00000200,00000000,0003.08,0002.96,0001.99,0000.42,0000.32,0000.36,0000.65,0000.50,0000.40,19.3,25.5,10.0,06.8,0677.3,31.0
2021-08-25T11:11:00Z,00000200,00000000,0003.86,0002.85,0002.02,0000.64,0000.56,0000.09,0000.65,0000.89,0000.63,19.3,25.5,09.9,06.8,0677.3,31.1
2021-08-25T11:12:00Z,00000200,00000000,0003.25,0002.85,0002.28,0001.16,0000.62,-000.05,0000.86,0000.34,0000.44,19.3,25.5,09.9,06.8,0677.3,31.1
2021-08-25T11:13:00Z,00000200,00000000,0003.69,0002.80,0002.05,-000.00,0000.63,0000.31,0000.36,0000.45,0000.59,19.3,25.5,09.9,06.8,0677.3,31.0
2021-08-25T11:14:00Z,00000200,00000000,0003.34,0003.04,0002.10,0000.17,0000.23,0000.19,0000.89,0000.96,0000.55,19.3,25.6,09.8,06.7,0677.3,31.0
2021-08-25T11:15:00Z,00000200,00000000,0002.83,0002.80,0001.89,0000.22,0000.38,0000.21,0000.63,0000.56,0000.06,19.3,25.5,09.8,06.7,0677.3,31.1
2021-08-25T11:16:00Z,00000200,00000000,0003.37,0002.66,0001.96,0000.45,0000.26,0000.52,0000.75,0000.95,0000.81,19.4,25.5,09.8,06.7,0677.3,31.1
2021-08-25T11:17:00Z,00000200,00000000,0003.22,0002.86,0002.14,0000.61,0000.28,0000.60,0000.69,0000.59,0000.72,19.4,25.5,09.8,06.7,0677.3,31.1
2021-08-25T11:18:00Z,00000200,00000000,0002.95,0002.97,0001.72,0000.90,0000.33,0000.34,0000.31,0000.20,0000.28,19.4,25.5,09.7,06.7,0677.3,31.1
2021-08-25T11:19:00Z,00000200,00000000,0003.63,0002.90,0002.04,0000.09,0000.53,0000.54,0000.45,0000.41,0000.19,19.4,25.5,09.4,06.4,0677.2,31.1
2021-08-25T11:20:00Z,00000200,00000000,0003.05,0002.60,0002.17,0001.04,0000.67,-000.14,0001.17,0001.41,0001.03,19.4,25.6,09.5,06.5,0677.3,31.1
2021-08-25T11:21:00Z,00000200,00000000,0003.28,0003.27,0002.17,0000.55,0000.48,0000.15,0000.00,-000.32,0000.14,19.4,25.5,09.5,06.5,0677.2,31.1
2021-08-25T11:22:00Z,00000200,00000000,0003.77,0002.92,0002.41,0000.67,0000.28,0000.22,-000.37,-000.32,-000.45,19.4,25.5,09.4,06.5,0677.2,31.1
2021-08-25T11:23:00Z,00000200,00000000,0003.53,0003.15,0002.53,0000.30,0000.70,0000.72,0001.59,0001.46,0001.34,19.4,25.6,08.8,06.0,0677.2,31.1
2021-08-25T11:24:00Z,00000200,00000000,0003.11,0003.13,0001.84,0000.08,0000.70,0000.46,0001.36,0001.05,0000.72,19.4,25.6,09.2,06.3,0677.3,31.1
2021-08-25T11:25:00Z,00000200,00000000,0003.37,0002.68,0002.04,0000.54,0000.75,0000.36,0000.33,0000.73,0000.77,19.4,25.6,09.4,06.4,0677.2,31.1
2021-08-25T11:26:00Z,00000200,00000000,0004.56,0003.87,0002.63,0000.72,0000.40,0000.58,-000.91,-000.94,-001.00,19.4,25.6,08.9,06.1,0677.2,31.1
2021-08-25T11:27:00Z,00000200,00000000,0004.02,0003.79,0002.62,0000.49,0000.62,0000.11,0001.24,0001.01,0001.02,19.4,25.6,08.3,05.7,0677.2,31.1
2021-08-25T11:28:00Z,00000200,00000000,0004.54,0003.93,0002.81,0000.52,0000.87,0000.39,0000.97,0000.68,0000.56,19.4,25.6,08.2,05.6,0677.2,31.1
2021-08-25T11:29:00Z,00000200,00000000,0004.27,0003.84,0002.46,0000.99,0000.63,0000.40,0000.77,0001.25,0001.03,19.4,25.6,08.5,05.8,0677.2,31.1
2021-08-25T11:30:00Z,00000200,00000000,0005.38,0004.42,0002.84,0000.81,0000.62,0000.48,0001.67,0000.91,0001.08,19.4,25.6,08.4,05.8,0677.2,31.1
2021-08-25T11:31:00Z,00000200,00000000,0004.35,0003.75,0002.38,0000.19,0000.65,0000.42,0001.10,0001.42,0000.76,19.4,25.6,08.7,06.0,0677.3,31.0
2021-08-25T11:32:00Z,00000200,00000000,0003.81,0003.54,0002.67,0000.24,0000.45,0000.15,0000.93,0000.75,0000.79,19.4,25.6,08.9,06.2,0677.3,31.1
2021-08-25T11:33:00Z,00000200,00000000,0004.23,0003.80,0002.38,0000.97,0000.54,0000.42,0000.55,0001.08,0000.44,19.4,25.6,08.7,06.0,0677.3,31.1
2021-08-25T11:34:00Z,00000200,00000000,0004.19,0003.62,0002.95,0000.32,0000.66,0000.44,0001.00,0000.39,0000.69,19.4,25.6,08.6,06.0,0677.2,31.1
2021-08-25T11:35:00Z,00000200,00000000,0004.82,0003.67,0003.10,0000.62,0000.49,0000.44,-000.12,-000.05,0000.16,19.4,25.6,08.5,05.9,0677.2,31.1
2021-08-25T11:36:00Z,00000200,00000000,0004.83,0003.71,0003.09,0000.73,0000.68,0000.52,0001.63,0001.34,0001.15,19.5,25.5,08.4,05.8,0677.2,31.1
2021-08-25T11:37:00Z,00000200,00000000,0004.61,0003.98,0002.76,0000.59,0000.74,-000.22,0000.40,0000.56,0000.43,19.4,25.6,08.4,05.8,0677.2,31.0
2021-08-25T11:38:00Z,00000200,00000000,0004.67,0004.35,0002.91,0000.63,0000.59,0000.36,0001.17,0000.98,0001.04,19.4,25.6,08.3,05.8,0677.2,31.1
2021-08-25T11:39:00Z,00000200,00000000,0004.85,0004.03,0002.86,0000.83,0000.75,0000.54,0001.55,0001.17,0000.54,19.4,25.6,08.5,05.8,0677.2,31.0
2021-08-25T11:40:00Z,00000200,00000000,0004.43,0004.07,0002.95,0000.88,0000.73,0000.40,0000.89,0001.02,0000.75,19.4,25.6,08.7,06.0,0677.3,31.0
2021-08-25T11:41:00Z,00000200,00000000,0004.67,0003.64,0002.56,0000.25,0000.51,0000.15,0000.99,0001.13,0000.88,19.4,25.6,08.6,05.9,0677.2,31.0
2021-08-25T11:42:00Z,00000200,00000000,0004.84,0003.74,0002.90,0000.97,0000.66,0000.05,0001.12,0000.99,0000.86,19.4,25.6,08.7,06.0,0677.3,31.0
2021-08-25T11:43:00Z,00000200,00000000,0004.69,0003.91,0002.26,0000.54,0000.29,0000.09,0000.64,0000.64,0000.57,19.4,25.6,08.8,06.0,0677.3,31.0
2021-08-25T11:44:00Z,00000200,00000000,0003.61,0003.47,0002.24,0000.62,0000.71,-000.13,0001.19,0000.63,0000.90,19.4,25.6,08.7,06.0,0677.3,31.0
2021-08-25T11:45:00Z,00000200,00000000,0003.41,0003.54,0002.70,0000.17,0000.65,0000.19,0000.99,0000.95,0000.53,19.4,25.6,08.9,06.1,0677.2,31.0
2021-08-25T11:46:00Z,00000200,00000000,0003.86,0003.30,0002.95,0000.03,0000.65,0000.77,0000.09,0000.50,0000.66,19.4,25.6,08.8,06.0,0677.1,31.0
2021-08-25T11:47:00Z,00000200,00000000,0005.07,0003.92,0002.85,0000.04,0000.39,0000.16,0000.33,0000.34,-000.31,19.4,25.6,08.1,05.5,0677.1,31.0
2021-08-25T11:48:00Z,00000200,00000000,0004.27,0003.92,0002.74,0000.79,0000.56,0000.61,0001.13,0001.21,0001.25,19.4,25.6,08.1,05.5,0677.1,31.0
2021-08-25T11:49:00Z,00000200,00000000,0003.97,0003.14,0002.38,0000.46,0000.50,0000.10,0001.94,0001.44,0001.21,19.4,25.6,08.4,05.8,0677.2,31.0
2021-08-25T11:50:00Z,00000200,00000000,0003.86,0003.87,0002.77,0000.57,0000.36,0000.27,0001.12,0000.66,0000.57,19.4,25.6,08.8,06.0,0677.2,31.0
2021-08-25T11:51:00Z,00000200,00000000,0004.32,0003.30,0002.45,0000.58,0000.59,0000.02,0001.18,0001.59,0000.95,19.4,25.6,08.9,06.1,0677.2,31.0
2021-08-25T11:52:00Z,00000200,00000000,0003.87,0003.67,0002.73,0000.23,0000.30,0000.40,0000.69,0000.82,0000.86,19.4,25.6,09.0,06.2,0677.2,31.1
2021-08-25T11:53:00Z,00000200,00000000,0004.14,0003.08,0002.71,0000.50,0000.37,0000.60,0000.97,0000.72,0000.85,19.5,25.6,08.8,06.1,0677.2,31.0
2021-08-25T11:54:00Z,00000200,00000000,0004.25,0003.45,0002.25,0000.63,0000.71,0000.42,0000.73,0000.53,0000.53,19.5,25.6,08.9,06.2,0677.2,31.0
2021-08-25T11:55:00Z,00000200,00000000,0004.46,0003.36,0002.28,0000.71,0000.64,0000.73,0000.97,0000.94,0000.63,19.5,25.6,09.0,06.2,0677.2,31.1
2021-08-25T11:56:00Z,00000200,00000000,0003.92,0003.78,0002.20,0000.62,0000.68,0000.30,0001.17,0001.27,0000.88,19.5,25.6,09.1,06.3,0677.2,31.1
2021-08-25T11:57:00Z,00000200,40000000,,,,,,,-000.07,-000.09,-000.05,19.5,25.6,09.1,06.3,0677.2,31.0
2021-08-25T11:58:00Z,00000200,60000000,,,,,,,0000.21,-000.07,0000.15,19.2,25.7,09.1,06.1,0676.2,31.0
2021-08-25T11:59:00Z,00000200,20000000,,,,,,,-000.22,0000.28,-000.33,19.2,25.8,09.1,06.1,0676.2,31.0
